This demonstration page uses our WeatherBlox Daily Observations layout. Learn more.

39.92423, -83.80882

Hourly Observations for May 1, 2019

Temp ( °F °C ) Dew Point ( °F °C ) Humidity (%) Winds ( mph kmh ) Pressure ( in mb ) Visibility ( mi km ) Precip ( " mm )
12:56 am 00:56 Clear 58 14.4 56 13.3 93 93 SE 9 15 30.08 1019 10 16.0934 0 0
1:56 am 01:56 Cloudy 58 14.4 56 13.3 93 93 SE 10 17 30.07 1018 10 16.0934 0 0
2:56 am 02:56 Partly Cloudy 59 15 57 13.9 93 93 SSE 8 13 30.06 1018 10 16.0934 0 0
3:56 am 03:56 Mostly Clear 60 15.6 57 13.9 90 90 SSE 8 13 30.06 1018 10 16.0934 0 0
4:56 am 04:56 Clear 61 16.1 57 13.9 87 87 SSE 9 15 30.04 1017 10 16.0934 0 0
5:56 am 05:56 Partly Cloudy 61 16.1 57 13.9 87 87 SSE 10 17 30.03 1017 10 16.0934 0 0
6:56 am 06:56 Mostly Sunny 64 17.8 58 14.4 81 81 S 7 11 30.04 1017 10 16.0934 0 0
7:56 am 07:56 Sunny 67 19.4 60 15.6 79 79 S 10 17 30.05 1018 10 16.0934 0 0
8:56 am 08:56 Sunny 71 21.7 61 16.1 71 71 SSW 16 26 30.04 1017 10 16.0934 0 0
9:56 am 09:56 Sunny 73 22.8 63 17.2 71 71 SW 21 33 30.04 1017 10 16.0934 0 0
10:56 am 10:56 Sunny 76 24.4 64 17.8 67 67 SW 25 41 30.03 1017 10 16.0934 0 0
11:56 am 11:56 Mostly Cloudy 77 25 63 17.2 62 62 SW 18 30 30.03 1017 10 16.0934 0 0
12:56 pm 12:56 Partly Cloudy 78 25.6 62 16.7 58 58 SW 25 41 30.01 1016 10 16.0934 0 0
1:56 pm 13:56 Mostly Sunny 78 25.6 61 16.1 56 56 SW 32 52 30 1016 10 16.0934 0 0
2:56 pm 14:56 Mostly Sunny 78 25.6 62 16.7 58 58 SW 23 37 30.03 1017 10 16.0934 0 0
3:56 pm 15:56 Cloudy 78 25.6 61 16.1 56 56 SSW 23 37 30.03 1017 10 16.0934 0 0
4:56 pm 16:56 Mostly Cloudy 79 26.1 62 16.7 56 56 SW 16 26 30.01 1016 10 16.0934 0 0
5:56 pm 17:56 Cloudy 70 21.1 62 16.7 76 76 NNW 16 26 30.03 1017 10 16.0934 0 0
6:03 pm 18:03 Cloudy 70 21 63 17 78 78 NNW 17 28 30.01 1016 10 16.0934 0 0
6:11 pm 18:11 Cloudy with Nearby Thunderstorms 70 21 63 17 78 78 NW 20 31 30.03 1017 9 14.48406 0 0.0254
6:54 pm 18:54 Mostly Cloudy 64 18 63 17 94 94 NW 7 11 30.06 1018 10 16.0934 0 0.0254
6:56 pm 18:56 Mostly Cloudy 65 18.3 63 17.2 93 93 NNW 8 13 30.07 1018 10 16.0934 0 0.0254
7:56 pm 19:56 Cloudy with Heavy Rain 64 17.8 62 16.7 93 93 NW 9 15 30.08 1019 5 8.0467 0.05 1.27
8:56 pm 20:56 Cloudy with Rain 63 17.2 63 17.2 100 100 Calm 30.1 1019 8 12.87472 0.09 2.286
9:56 pm 21:56 Cloudy with Heavy Rain 62 16.7 62 16.7 100 100 SW 5 7 30.11 1020 6 9.65604 0.08 2.032
10:56 pm 22:56 Cloudy with Light Rain 61 16.1 61 16.1 100 100 E 3 6 30.08 1019 7 11.26538 0.1 2.54
11:56 pm 23:56 Cloudy with Heavy Rain 61 16.1 61 16.1 100 100 SW 7 11 30.11 1020 4 6.43736 0.06 1.524

Powered by AerisWeather